Weather History for Faribault, MN

Change the Weather History Date:

Sunday, October 6, 2013

  Actual Average Record
Temperature  
Mean Temperature 48 °F -  
Max Temperature 53 °F 63 °F 89 °F (2007)
Min Temperature 42 °F 39 °F 21 °F (1976)
Degree Days  
Heating Degree Days 18    
Moisture  
Dew Point 46 °F    
Average Humidity 94    
Maximum Humidity 100    
Minimum Humidity 72    
Precipitation  
Precipitation 0.04 in - - ()
Sea Level Pressure  
Sea Level Pressure 29.75 in    
Wind  
Wind Speed 3 mph (West)    
Max Wind Speed 14 mph    
Max Gust Speed 20 mph    
Visibility 10 miles    
Events Rain    
Averages and records for this station are not official NWS values.
T = Trace of Precipitation, MM = Missing Value Source: NWS Daily Summary

Daily Weather History Graph

Daily Weather History Graph

Search for Another Location

Airport:

Trip Planner

Search our weather history database for the weather conditions in past years. The results will help you decide how hot, cold, wet, or windy it might be!

Date:

Astronomy

Oct. 06, 2013 Rise Set
Actual Time 7:17 AM CDT 6:44 PM CDT
Civil Twilight 6:48 AM CDT 7:13 PM CDT
Nautical Twilight 6:14 AM CDT 7:46 PM CDT
Astronomical Twilight 5:40 AM CDT 8:20 PM CDT
Moon 9:07 AM CDT (10/6) 7:38 PM CDT (10/6)
Length of Visible Light 12h 24m
Length of Day
11h 26m
Waxing Crescent, 3% of the Moon is Illuminated
Oct 6
Waxing Crescent
Oct 11
First Quarter
Oct 18
Full
Oct 26
Last Quarter
Nov 3
New

Hourly Weather History & Observations

Time (CDT) Temp. Windchill Dew Point Humidity Pressure Visibility Wind Dir Wind Speed Gust Speed Precip Events Conditions
12:14 AM 42.8 °F - 42.8 °F 100% 29.75 in 10.0 mi Calm Calm - N/A   Clear
12:34 AM 44.6 °F - 42.8 °F 93% 29.75 in 10.0 mi Calm Calm - N/A   Clear
12:54 AM 42.8 °F - 42.8 °F 100% 29.75 in 10.0 mi Calm Calm - N/A   Clear
1:14 AM 42.8 °F - 42.8 °F 100% 29.75 in 10.0 mi Calm Calm - N/A   Clear
1:34 AM 42.8 °F - 42.8 °F 100% 29.74 in 10.0 mi Calm Calm - N/A   Clear
1:54 AM 42.8 °F - 42.8 °F 100% 29.74 in 10.0 mi Calm Calm - N/A   Mostly Cloudy
2:13 AM 44.6 °F - 44.6 °F 100% 29.73 in 10.0 mi Calm Calm - N/A   Overcast
2:34 AM 44.6 °F - 44.6 °F 100% 29.73 in 10.0 mi Calm Calm - N/A   Overcast
2:54 AM 44.6 °F - 44.6 °F 100% 29.73 in 10.0 mi Calm Calm - N/A   Overcast
3:14 AM 44.6 °F - 44.6 °F 100% 29.72 in 10.0 mi Calm Calm - N/A   Overcast
3:34 AM 44.6 °F - 44.6 °F 100% 29.72 in 10.0 mi Calm Calm - N/A   Overcast
3:54 AM 44.6 °F 43.1 °F 44.6 °F 100% 29.71 in 10.0 mi South 3.5 mph - N/A   Overcast
4:14 AM 44.6 °F - 44.6 °F 100% 29.71 in 10.0 mi Calm Calm - N/A   Overcast
4:34 AM 44.6 °F - 44.6 °F 100% 29.71 in 10.0 mi Calm Calm - N/A   Overcast
4:54 AM 44.6 °F - 44.6 °F 100% 29.71 in 10.0 mi Calm Calm - N/A   Overcast
5:14 AM 44.6 °F - 44.6 °F 100% 29.71 in 10.0 mi Calm Calm - N/A   Overcast
5:34 AM 44.6 °F 43.1 °F 44.6 °F 100% 29.71 in 10.0 mi South 3.5 mph - N/A   Overcast
5:54 AM 44.6 °F 43.1 °F 44.6 °F 100% 29.71 in 10.0 mi SW 3.5 mph - N/A   Overcast
6:14 AM 46.4 °F 45.2 °F 44.6 °F 93% 29.71 in 10.0 mi WSW 3.5 mph - N/A   Overcast
6:34 AM 46.4 °F 45.2 °F 42.8 °F 87% 29.70 in 10.0 mi SSW 3.5 mph - N/A   Overcast
6:54 AM 44.6 °F - 44.6 °F 100% 29.70 in 10.0 mi Calm Calm - N/A   Overcast
7:14 AM 44.6 °F - 44.6 °F 100% 29.71 in 10.0 mi Calm Calm - N/A   Overcast
7:34 AM 44.6 °F 43.1 °F 44.6 °F 100% 29.71 in 10.0 mi WSW 3.5 mph - N/A   Overcast
7:54 AM 46.4 °F 45.2 °F 44.6 °F 93% 29.71 in 10.0 mi WSW 3.5 mph - N/A   Overcast
8:14 AM 46.4 °F 42.4 °F 42.8 °F 87% 29.72 in 10.0 mi West 8.1 mph - N/A   Overcast
8:34 AM 46.4 °F 42.9 °F 44.6 °F 93% 29.72 in 10.0 mi West 6.9 mph - N/A   Overcast
8:54 AM 46.4 °F - 44.6 °F 93% 29.71 in 10.0 mi Calm Calm - N/A   Overcast
9:14 AM 46.4 °F 45.2 °F 44.6 °F 93% 29.72 in 10.0 mi South 3.5 mph - N/A   Overcast
9:34 AM 46.4 °F 44.3 °F 44.6 °F 93% 29.72 in 10.0 mi SW 4.6 mph - N/A   Overcast
9:54 AM 46.4 °F 45.2 °F 44.6 °F 93% 29.71 in 10.0 mi SSW 3.5 mph - N/A   Overcast
10:14 AM 46.4 °F 45.2 °F 44.6 °F 93% 29.72 in 10.0 mi SSW 3.5 mph - N/A   Overcast
10:34 AM 48.2 °F - 44.6 °F 87% 29.72 in 10.0 mi Calm Calm - N/A   Overcast
10:54 AM 48.2 °F - 46.4 °F 93% 29.72 in 10.0 mi WSW 6.9 mph - N/A   Overcast
11:14 AM 48.2 °F - 44.6 °F 87% 29.72 in 10.0 mi West 3.5 mph - N/A   Overcast
11:34 AM 50.0 °F - 44.6 °F 82% 29.72 in 10.0 mi West 4.6 mph - N/A   Mostly Cloudy
11:54 AM 51.8 °F - 44.6 °F 76% 29.72 in 10.0 mi SW 4.6 mph - N/A   Scattered Clouds
12:14 PM 53.6 °F - 46.4 °F 77% 29.72 in 10.0 mi SW 5.8 mph - N/A   Mostly Cloudy
12:34 PM 53.6 °F - 44.6 °F 72% 29.72 in 10.0 mi WSW 4.6 mph - N/A   Overcast
12:54 PM 53.6 °F - 46.4 °F 77% 29.71 in 10.0 mi West 3.5 mph - N/A   Overcast
1:14 PM 53.6 °F - 44.6 °F 72% 29.70 in 10.0 mi Calm Calm - N/A   Overcast
1:34 PM 53.6 °F - 46.4 °F 77% 29.71 in 10.0 mi Calm Calm - N/A   Mostly Cloudy
1:54 PM 53.6 °F - 46.4 °F 77% 29.70 in 10.0 mi West 4.6 mph - N/A   Overcast
2:14 PM 53.6 °F - 46.4 °F 77% 29.70 in 10.0 mi West 4.6 mph - N/A   Overcast
2:34 PM 53.6 °F - 46.4 °F 77% 29.70 in 10.0 mi West 4.6 mph - N/A   Overcast
2:54 PM 53.6 °F - 48.2 °F 82% 29.71 in 7.0 mi NW 4.6 mph - N/A   Overcast
3:14 PM 53.6 °F - 48.2 °F 82% 29.71 in 10.0 mi West 4.6 mph - N/A   Overcast
3:34 PM 53.6 °F - 48.2 °F 82% 29.71 in 10.0 mi NNW 5.8 mph - N/A   Overcast
3:54 PM 53.6 °F - 50.0 °F 88% 29.72 in 10.0 mi WNW 6.9 mph - N/A   Overcast
4:14 PM 51.8 °F - 51.8 °F 100% 29.72 in 3.0 mi NW 6.9 mph - N/A   Drizzle
4:34 PM 51.8 °F - 51.8 °F 100% 29.73 in 2.5 mi NNW 6.9 mph - 0.01 in   Drizzle
4:54 PM 51.8 °F - 51.8 °F 100% 29.74 in 2.0 mi NNW 9.2 mph - 0.02 in   Drizzle
5:14 PM 50.0 °F - 50.0 °F 100% 29.75 in 7.0 mi NW 8.1 mph - N/A   Light Drizzle
5:34 PM 51.8 °F - 51.8 °F 100% 29.76 in 10.0 mi NNW 9.2 mph - N/A   Overcast
5:54 PM 50.0 °F - 50.0 °F 100% 29.76 in 3.0 mi NW 10.4 mph 19.6 mph N/A Rain Light Rain
6:14 PM 50.0 °F - 48.2 °F 94% 29.77 in 10.0 mi NW 12.7 mph - N/A   Overcast
6:34 PM 48.2 °F - 48.2 °F 100% 29.78 in 10.0 mi NW 11.5 mph 19.6 mph N/A   Overcast
6:54 PM 48.2 °F - 48.2 °F 100% 29.78 in 10.0 mi NW 11.5 mph 18.4 mph N/A   Overcast
7:14 PM 48.2 °F - 48.2 °F 100% 29.80 in 10.0 mi WNW 13.8 mph 18.4 mph N/A   Overcast
7:34 PM 48.2 °F - 46.4 °F 93% 29.81 in 10.0 mi NW 13.8 mph 18.4 mph N/A Rain Rain
7:54 PM 46.4 °F 41.5 °F 46.4 °F 100% 29.82 in 10.0 mi NW 10.4 mph 16.1 mph 0.01 in Rain Rain
8:14 PM 46.4 °F 41.1 °F 46.4 °F 100% 29.82 in 7.0 mi NNW 11.5 mph - 0.01 in   Drizzle
8:34 PM 48.2 °F - 46.4 °F 93% 29.82 in 10.0 mi NW 9.2 mph - 0.01 in   Mostly Cloudy
8:54 PM 48.2 °F - 46.4 °F 93% 29.83 in 10.0 mi NW 11.5 mph 16.1 mph 0.01 in   Mostly Cloudy
9:14 PM 48.2 °F - 48.2 °F 100% 29.83 in 10.0 mi NW 10.4 mph - N/A   Overcast
9:34 PM 48.2 °F - 46.4 °F 93% 29.84 in 10.0 mi NW 9.2 mph - N/A   Mostly Cloudy
9:54 PM 46.4 °F 44.3 °F 46.4 °F 100% 29.84 in 10.0 mi WNW 4.6 mph - N/A   Scattered Clouds
10:14 PM 46.4 °F 44.3 °F 46.4 °F 100% 29.85 in 10.0 mi WNW 4.6 mph - N/A   Scattered Clouds
10:34 PM 46.4 °F 43.5 °F 46.4 °F 100% 29.85 in 10.0 mi WNW 5.8 mph - N/A   Clear
10:54 PM 44.6 °F 41.4 °F 44.6 °F 100% 29.86 in 10.0 mi West 5.8 mph - N/A   Clear
11:14 PM 44.6 °F 42.2 °F 44.6 °F 100% 29.86 in 10.0 mi West 4.6 mph - N/A   Clear
11:34 PM 44.6 °F 42.2 °F 44.6 °F 100% 29.86 in 10.0 mi West 4.6 mph - N/A   Clear
11:54 PM 44.6 °F 43.1 °F 44.6 °F 100% 29.86 in 10.0 mi West 3.5 mph - N/A   Clear